Location: Newark
(41.5333°N, 14.5500°E)
Time: 18:45:57
(UTC+00:00)

Envisat - Pass Details

Date: 30 January 2020
Orbit: 764 x 766 km, 98.1° (Epoch: 19 February)

Event Time Altitude Azimuth Distance (km) Brightness Sun altitude
Rises 17:40:46 0° 194° (SSW) 3,218 6.5 -16.3°
Reaches altitude 10° 17:43:21 10° 205° (SSW) 2,296 5.9 -16.8°
Maximum altitude 17:47:43 29° 265° (W) 1,383 5.1 -17.6°
Drops below altitude 10° 17:52:06 10° 325° (NW) 2,310 5.8 -18.4°
Sets 17:54:43 0° 336° (NNW) 3,241 6.5 -18.9°
